カタログに戻る

GLOBALSTAR M004 DEB

運用中LEO
NORAD 43357·DEBRIS·🇺🇸 United States

打ち上げ Feb 14, 1998 から Cape Canaveral Space Force Station

Loading…

次のパス (今後24時間)

TLE

最新Source: Space-Track

元期: Sep 14, 2026, 05:59 UTC

1 43357U 98008H   26257.24993340  .00001443  00000-0  86427-2 0  9994
2 43357  51.9707 221.3516 0095076 275.6276  83.3753 12.60800730489620

AllMySatでGLOBALSTAR M004 DEBをリアルタイム追跡

Download on the App Store